Showing default

LKW-3, 43146

Orbit data source: Space-Track

LKW-3, 43146 is a Chinese payload satellite in SSO that was launched on Sat, 13 Jan 2018 UTC via a CHANG ZHENG 2D launch vehicle from the Jiuquan Satellite Launch Center, China (JSC). Payload-class satellites include a variety of spacecraft equipped with specific instruments for various scientific and technological missions. These include communications satellites like Starlink; space stations such as the ISS; scientific satellites like the Hubble; Earth observation satellites from companies like Planet Labs, Umbra, and HawkEye 360; GPS; miniature CubeSats for education and research; and military/defense satellites.

Loading next visibility...
Identifier
43146, 2018-006A
Orbit
SSO
Country
Flag of CNCN / PRC
Related business
Manufacturer
CAST?
Mission
Operational Defense Imaging
Bus & Motor
LKW, Unknown motor
Mass
~2,000 kg wet, ~2,000 kg dry
Launch date (UTC)
2018-01-13 (8 years ago)
Launch vehicle
CHANG ZHENG 2D
Launch site
Jiuquan Satellite Launch Center, China (JSC)
Object type
Payload
Rocket body
Debris
Shape & HBR
Hex Cyl + 3 Pan, 5.0 m
Radar Cross Section
8.135 m², Large (>1 m²)

Expand to show TLE details & history
Last TLE update: 4 hours ago

TLE from 4 hours ago
0 LKW-3
1 43146U 18006A   26133.17517078  .00003947  00000-0  12049-3 0  9996
2 43146  97.6576 292.4096 0004155  78.0382 282.1325 15.34545456463340
Epoch: 2026-05-13T04:12Z
TLE epoch observation values (Epoch: 2026-05-13T04:12:14.755Z)
Latitude
-0.00011°
Longitude
-1.59083°
Altitude
464.777 km
Speed
7.634 km/s
True Right ascension
19h 29m 38s
True Declination
0° 00' 00"
Sunlit
Object was in full shadow at epoch
Visualization orbit readout
Latitude
Unknown
Longitude
Unknown
Altitude
Unknown
Speed
Unknown
Apparent Right ascension
Unknown
Apparent Declination
Unknown
Sunlit
N/A
Visualization observer readout
Local Sidereal Time
16:14:58
Azimuth
Unknown
Elevation
Unknown
Doppler factor
Unknown
Orbital elements
Apogee altitude
462.069 km
Perigee altitude
456.388 km
Semi-major axis
6,837.365 km
Eccentricity
0.00042
Inclination
97.6576°
RAAN
292.4096°
Arg. of periapsis
78.0382°
True anomaly
282.08595°
Mean anomaly
282.1325°
Eccentric anomaly
282.10922°
Mean motion
3.83893 °/min
Orbital period
93.78 mins
BSTAR
0.00012049
Loading maneuver chart data...
Computing Atmospheric mass density...
Loading historical data...
Loading historical data...
Loading historical data...
Loading historical data...
Loading historical data...
Loading historical data...
Loading historical data...

Documentation

Showing up to 5 results
|